Location: Unspecified
(0.0000°N, 0.0000°E)
Time: 19:04:42
(UTC+00:00)

deb Briz - Pass Details

Date: 20 February 2026
Orbit: 1858 x 2172 km, 64.9° (Epoch: 11 March)

Event Time Altitude Azimuth Distance (km) Brightness Sun altitude
Rises 04:22:11 0° 207° (SSW) 5,493 ? -27.3°
Reaches altitude 10° 04:25:30 10° 209° (SSW) 4,528 ? -26.5°
Maximum altitude 04:37:18 70° 290° (WNW) 2,233 ? -23.7°
Drops below altitude 10° 04:49:35 10° 13° (NNE) 4,682 ? -20.6°
Sets 04:53:05 0° 16° (NNE) 5,687 ? -19.8°
